Location: Jetmore Oil Field
(38.1181°N, 99.9337°W)
Time: 22:31:17
(UTC+00:00)

Cosmos 2173 Rocket - Pass Details

Date: 17 February 2020
Orbit: 944 x 1002 km, 83.0° (Epoch: 09 April)

Event Time Altitude Azimuth Distance (km) Brightness Sun altitude
Rises 00:43:55 0° 177° (S) 3,690 7.1 -5.6°
Reaches altitude 10° 00:46:26 10° 175° (S) 2,750 6.4 -6.1°
Maximum altitude 00:52:42 68° 93° (E) 1,072 4.1 -7.3°
Drops below altitude 10° 00:59:03 10° 12° (NNE) 2,780 6.2 -8.5°
Sets 01:01:36 0° 10° (N) 3,733 6.9 -9.0°
